Location: Friaudour
(46.0460°N, 1.2873°E)
Time: 04:46:19
(UTC+00:00)

CZ-4C R/B - Pass Details

Date: 14 July 2020
Orbit: 463 x 636 km, 98.0° (Epoch: 06 August)

Event Time Altitude Azimuth Distance (km) Brightness Sun altitude
Exits shadow 01:11:26 30° 124° (ESE) 965 4.4 -20.5°
Maximum altitude 01:12:52 45° 72° (ENE) 719 4.1 -20.4°
Drops below altitude 10° 01:16:23 10° 359° (N) 1,715 6.9 -20.2°
Sets 01:18:28 0° 353° (N) 2,579 7.9 -20.1°
